OpenBCM V1.13 (Linux)

Packet Radio Mailbox

DB0FHN

[JN59NK Nuernberg]

 Login: GUEST





  
CX2SA  > KEPS     17.12.04 07:34l 151 Lines 3943 Bytes #999 (0) @ AMSAT
BID : ORB04351.O
Read: GUEST
Subj: Orbital Elements  04351.OSCAR
Path: DB0FHN<DB0CL<DB0PDF<DB0SM<DB0EA<DB0RES<OK0PPL<RZ6HXA<IK1ZNW<I0TVL<
      CX2SA
Sent: 041217/0526Z @:CX2SA.LAV.URY.SA #:51682 [Minas] FBB7.00e $:ORB04351.O
From: CX2SA@CX2SA.LAV.URY.SA
To  : KEPS@AMSAT


HR AMSAT ORBITAL ELEMENTS FOR OSCAR SATELLITES
FROM WA5QGD FORT WORTH,TX December 16, 2004
SEND SUBSCRIBE/UNSUBSCRIBE TO majordomo@amsat.org ONLY
BID: ORB04351.O
TO ALL RADIO AMATEURS BT

Satellite: AO-07
Catalog number: 07530
Epoch time:      04350.75679783
Element set:     360
Inclination:      101.6585 deg
RA of node:        34.4763 deg
Eccentricity:    0.0011992
Arg of perigee:   230.5495 deg
Mean anomaly:     129.4516 deg
Mean motion:   12.53569950 rev/day
Decay rate:       -2.9e-07 rev/day^2
Epoch rev:           37666
Checksum:              322

Satellite: AO-10
Catalog number: 14129
Epoch time:      04350.23971781
Element set:    0132
Inclination:      026.8825 deg
RA of node:       056.6063 deg
Eccentricity:    0.6032206
Arg of perigee:   148.9441 deg
Mean anomaly:     267.6572 deg
Mean motion:   02.05870105 rev/day
Decay rate:      -1.71e-06 rev/day^2
Epoch rev:           16174
Checksum:              283

Satellite: UO-11
Catalog number: 14781
Epoch time:      04351.29515812
Element set:     662
Inclination:       98.1917 deg
RA of node:       339.3080 deg
Eccentricity:    0.0008550
Arg of perigee:   221.5907 deg
Mean anomaly:     138.4655 deg
Mean motion:   14.79106513 rev/day
Decay rate:       5.86e-06 rev/day^2
Epoch rev:           11476
Checksum:              305

Satellite: RS-10/11
Catalog number: 18129
Epoch time:      04351.14981417
Element set:     564
Inclination:       82.9254 deg
RA of node:        13.5304 deg
Eccentricity:    0.0011455
Arg of perigee:   167.4192 deg
Mean anomaly:     192.7248 deg
Mean motion:   13.72750671 rev/day
Decay rate:        5.8e-07 rev/day^2
Epoch rev:           87596
Checksum:              310

Satellite: FO-20
Catalog number: 20480
Epoch time:      04351.49243987
Element set:     769
Inclination:       99.0174 deg
RA of node:       194.4488 deg
Eccentricity:    0.0539879
Arg of perigee:   293.8197 deg
Mean anomaly:      60.7202 deg
Mean motion:   12.83343741 rev/day
Decay rate:       -5.6e-07 rev/day^2
Epoch rev:           69606
Checksum:              348

Satellite: RS-12/13
Catalog number: 21089
Epoch time:      04351.08370232
Element set:     788
Inclination:       82.9242 deg
RA of node:        46.7794 deg
Eccentricity:    0.0027947
Arg of perigee:   227.5687 deg
Mean anomaly:     132.3105 deg
Mean motion:   13.74444850 rev/day
Decay rate:        3.0e-07 rev/day^2
Epoch rev:           69534
Checksum:              314

Satellite: RS-15
Catalog number: 23439
Epoch time:      04350.63535789
Element set:    0857
Inclination:      064.8200 deg
RA of node:       044.3992 deg
Eccentricity:    0.0158444
Arg of perigee:   348.6207 deg
Mean anomaly:     011.1153 deg
Mean motion:   11.27550349 rev/day
Decay rate:       -3.9e-07 rev/day^2
Epoch rev:           41069
Checksum:              305

Satellite: FO-29
Catalog number: 24278
Epoch time:      04350.80207225
Element set:     848
Inclination:       98.5735 deg
RA of node:        58.8990 deg
Eccentricity:    0.0350015
Arg of perigee:   291.5051 deg
Mean anomaly:      64.9107 deg
Mean motion:   13.52906306 rev/day
Decay rate:       -2.3e-07 rev/day^2
Epoch rev:           41139
Checksum:              302

Satellite: SO-33
Catalog number: 25509
Epoch time:      04350.39060106
Element set:    0260
Inclination:      031.4322 deg
RA of node:       351.4404 deg
Eccentricity:    0.0356618
Arg of perigee:   359.5465 deg
Mean anomaly:     000.4780 deg
Mean motion:   14.27939177 rev/day
Decay rate:        4.9e-07 rev/day^2
Epoch rev:           32053
Checksum:              280

Satellite: AO-40
Catalog number: 26609
Epoch time:      04350.99234882
Element set:     471
Inclination:        9.1015 deg
RA of node:       330.0211 deg
Eccentricity:    0.7958960
Arg of perigee:   348.2286 deg
Mean anomaly:       0.4765 deg
Mean motion:    1.25586278 rev/day
Decay rate:      -1.35e-06 rev/day^2
Epoch rev:            1895
Checksum:              308



Read previous mail | Read next mail


 15.09.2026 04:06:31lGo back Go up